User: anonymous   Login
Location: Boiro
(42.6475°N, 8.8834°W)
Time: 07:34:49
(UTC+01:00)
Language:

ITAMSAT 1 - Orbit

View from above orbital plane
View from above orbital plane
View from above satellite
View from above satellite

Ground track
Ground track

The orbit data is extracted from the following two-line orbital elements,

1 22826U 93061D   22027.66815111  .00000026  00000-0  27681-4 0  9997
2 22826  98.8973  55.5030 0010029  89.4156 270.8175 14.30483259478535
Epoch (UTC): 27 January 2022 16:02:08
Eccentricity: 0.0010029
inclination: 98.8973°
perigee height: 783 km
apogee height: 797 km
right ascension of ascending node: 55.5030°
argument of perigee: 89.4156°
revolutions per day: 14.30483259
mean anomaly at epoch: 270.8175°
orbit number at epoch: 47853

The dashed part of the orbit path shows where the satellite is in the earth's shadow,  

DLR